Regional Weather Roundup
Issued by NWS

Home | Current Version | Previous Version | Text Only | Print | Product List | Glossary Off
Versions: 1 2 3 4 5 6 7 8 9 10 11 12 13 14 15 16 17 18 19 20 21 22 23 24 25 26 27 28 29 30 31 32 33 34 35 36 37 38 39 40 41 42 43 44 45 46 47 48 49 50

000
ASUS43 KLSX 260110
RWRMO

WEATHER SUMMARY FOR MISSOURI
NATIONAL WEATHER SERVICE SPRINGFIELD MO
700 PM CST SAT FEB 25 2017

NOTE: "FAIR" INDICATES FEW OR NO CLOUDS BELOW 12,000 FEET WITH NO
       SIGNIFICANT WEATHER AND/OR OBSTRUCTIONS TO VISIBILITY.
       CURRENT SKY AND/OR WEATHER CONDITIONS ARE NOT AVAILABLE FOR
       CHILLICOTHE AND FARMINGTON.

MOZ001>031-035>038-043-044-053-054-260200-
...NORTHERN AND WESTERN MISSOURI...

CITY           SKY/WX    TMP DP  RH WIND       PRES   REMARKS
KANSAS CTY INT PTCLDY    31  11  43 S6        30.04F WCI  25
KANSAS C DTWN  CLEAR     37  10  32 S8        30.06S
LEE`S SUMMIT   CLEAR     37  10  32 S7        30.06S
ST JOSEPH      PTCLDY    32  15  49 S6        30.04F WCI  26
CHILLICOTHE      N/A     29  15  56 CALM      30.08F
KIRKSVILLE     CLEAR     31  11  43 SW3       30.07S

$$
MOZ066>068-077>081-088>096-101>105-260200-
...SOUTHWEST MISSOURI...

CITY           SKY/WX    TMP DP  RH WIND       PRES   REMARKS
SPRINGFIELD    CLEAR     33  16  49 CALM      30.09S
JOPLIN         CLEAR     37  13  37 CALM      30.10F
BRANSON        CLEAR     36  10  35 CALM      30.11S

$$
MOZ032>034-039>042-045>050-055>058-069>072-260200-
...CENTRAL MISSOURI...

CITY           SKY/WX    TMP DP  RH WIND       PRES   REMARKS
COLUMBIA       CLEAR     35   9  33 CALM      30.10S
JEFFERSON CITY CLEAR     36  13  38 CALM      30.11S
ROLLA          CLEAR     31  12  45 CALM      30.09S
SEDALIA        CLEAR     35   9  33 S3        30.10S
WHITEMAN AFB   CLEAR     35   9  34 S6        30.07S WCI  30
WARRENSBURG    CLEAR     36  12  38 S3        30.08S
OSAGE BEACH    CLEAR     35  11  36 CALM      30.11S

$$
MOZ051-052-059>065-260200-
...EAST CENTRAL MISSOURI...

CITY           SKY/WX    TMP DP  RH WIND       PRES   REMARKS
ST LOUIS INTL  PTCLDY    34  12  40 W7        30.12R WCI  28
SPIRIT OF STL  CLEAR     30  16  56 CALM      30.12R
ST CHARLES     CLEAR     34  12  40 W7        30.12R WCI  28

$$
MOZ072>076-082>087-097>100-106>115-260200-
...SOUTH CENTRAL AND SOUTHEAST MISSOURI...

CITY           SKY/WX    TMP DP  RH WIND       PRES   REMARKS
CAPE GIRARDEAU CLEAR     34  14  43 NW7       30.12R WCI  28
FARMINGTON     CLEAR     34  11  38 NW3       30.12R
POPLAR BLUFF   CLEAR     40  15  36 NW3       30.13R
WEST PLAINS    CLEAR     36  12  37 CALM      30.11R

$$



USA.gov is the U.S. government's official web portal to all federal, state and local government web resources and services.